Weather History for KGZL - February, 2013

Change the Weather History Date:

Wednesday, February 13, 2013

  Actual Average (KFSM) Record (KFSM)
Temperature  
Mean Temperature 45 °F 44 °F  
Max Temperature 55 °F 55 °F 85 °F (1962)
Min Temperature 35 °F 33 °F -8 °F (1905)
Degree Days  
Heating Degree Days 20 21  
Month to date heating degree days 297  
Since 1 July heating degree days 2388  
Moisture  
Dew Point 34 °F    
Average Humidity 74    
Maximum Humidity 100    
Minimum Humidity 35    
Precipitation  
Precipitation 0.00 in 0.09 in 3.23 in (1949)
Month to date precipitation 1.24  
Year to date precipitation 4.05  
Sea Level Pressure  
Sea Level Pressure 30.02 in    
Wind  
Wind Speed 8 mph (West)    
Max Wind Speed 13 mph    
Max Gust Speed 18 mph    
Visibility 9 miles    
Events      
T = Trace of Precipitation, MM = Missing Value Source: NWS Daily Summary

Daily Weather History Graph

Daily Weather History Graph

Search for Another Location

Airport or City:

Trip Planner

Search our weather history database for the weather conditions in past years. The results will help you decide how hot, cold, wet, or windy it might be!

Date:

Astronomy

Feb. 13, 2013 Rise Set
Actual Time 7:08 AM CST 6:01 PM CST
Civil Twilight 6:42 AM CST 6:27 PM CST
Nautical Twilight 6:12 AM CST 6:57 PM CST
Astronomical Twilight 5:43 AM CST 7:26 PM CST
Moon 8:48 AM CST (2/13) 9:53 PM CST (2/13)
Length of Visible Light 11h 44m
Length of Day
10h 52m
Waxing Crescent, 14% of the Moon is Illuminated
Feb 13
Waxing Crescent
Feb 17
First Quarter
Feb 25
Full
Mar 4
Last Quarter
Mar 11
New

Hourly Weather History & Observations

Time (CST) Temp. Windchill Dew Point Humidity Pressure Visibility Wind Dir Wind Speed Gust Speed Precip Events Conditions
12:15 AM 37.4 °F 31.4 °F 35.6 °F 93% 30.00 in 10.0 mi NNW 8.1 mph - N/A   Overcast
12:35 AM 37.4 °F 32.1 °F 35.6 °F 93% 30.00 in 8.0 mi NNW 6.9 mph - N/A   Overcast
12:55 AM 37.4 °F 31.4 °F 35.6 °F 93% 30.00 in 8.0 mi NW 8.1 mph - N/A   Overcast
1:15 AM 37.4 °F 30.8 °F 35.6 °F 93% 30.00 in 9.0 mi NNW 9.2 mph - N/A   Overcast
1:35 AM 35.6 °F 29.2 °F 35.6 °F 100% 30.00 in 9.0 mi NW 8.1 mph - N/A   Overcast
1:55 AM 35.6 °F 30.7 °F 35.6 °F 100% 30.00 in 8.0 mi NW 5.8 mph - N/A   Overcast
2:15 AM 35.6 °F 30.7 °F 35.6 °F 100% 30.01 in 7.0 mi NW 5.8 mph - N/A   Overcast
2:35 AM 35.6 °F 28.6 °F 33.8 °F 93% 30.01 in 7.0 mi NW 9.2 mph - N/A   Overcast
2:55 AM 35.6 °F 29.9 °F 35.6 °F 100% 30.01 in 6.0 mi WNW 6.9 mph - N/A   Overcast
3:15 AM 35.6 °F 29.9 °F 33.8 °F 93% 30.01 in 7.0 mi NW 6.9 mph - N/A   Overcast
3:35 AM 35.6 °F 29.2 °F 35.6 °F 100% 30.01 in 7.0 mi NW 8.1 mph - N/A   Overcast
3:55 AM 35.6 °F 29.2 °F 35.6 °F 100% 30.01 in 6.0 mi WNW 8.1 mph - N/A   Overcast
4:15 AM 35.6 °F 28.6 °F 35.6 °F 100% 30.01 in 6.0 mi NW 9.2 mph - N/A   Overcast
4:35 AM 35.6 °F 27.1 °F 35.6 °F 100% 30.02 in 7.0 mi NW 12.7 mph - N/A   Overcast
4:55 AM 35.6 °F 28.0 °F 35.6 °F 100% 30.02 in 7.0 mi NW 10.4 mph - N/A   Overcast
5:15 AM 35.6 °F 28.6 °F 35.6 °F 100% 30.02 in 7.0 mi NW 9.2 mph - N/A   Overcast
5:35 AM 35.6 °F 28.0 °F 35.6 °F 100% 30.03 in 7.0 mi NW 10.4 mph - N/A   Overcast
5:55 AM 35.6 °F 29.9 °F 35.6 °F 100% 30.03 in 7.0 mi NW 6.9 mph - N/A   Overcast
6:15 AM 35.6 °F 29.9 °F 35.6 °F 100% 30.04 in 6.0 mi NW 6.9 mph - N/A   Overcast
6:35 AM 35.6 °F 29.9 °F 35.6 °F 100% 30.05 in 7.0 mi NW 6.9 mph - N/A   Overcast
6:55 AM 35.6 °F 30.7 °F 35.6 °F 100% 30.05 in 8.0 mi WNW 5.8 mph - N/A   Overcast
7:15 AM 35.6 °F 30.7 °F 35.6 °F 100% 30.06 in 8.0 mi WNW 5.8 mph - N/A   Overcast
7:35 AM 37.4 °F 31.4 °F 35.6 °F 93% 30.07 in 7.0 mi WNW 8.1 mph - N/A   Overcast
7:55 AM 37.4 °F 32.1 °F 35.6 °F 93% 30.08 in 7.0 mi WNW 6.9 mph - N/A   Overcast
8:15 AM 37.4 °F 32.8 °F 35.6 °F 93% 30.08 in 7.0 mi WNW 5.8 mph - N/A   Overcast
8:35 AM 37.4 °F 34.9 °F 35.6 °F 93% 30.09 in 7.0 mi West 3.5 mph - N/A   Overcast
8:55 AM 37.4 °F 32.1 °F 35.6 °F 93% 30.09 in 9.0 mi West 6.9 mph - N/A   Overcast
9:15 AM 39.2 °F 34.2 °F 35.6 °F 87% 30.09 in 9.0 mi West 6.9 mph - N/A   Overcast
9:35 AM 39.2 °F 35.0 °F 37.4 °F 93% 30.09 in 9.0 mi West 5.8 mph - N/A   Mostly Cloudy
9:55 AM 41.0 °F 36.4 °F 35.6 °F 81% 30.08 in 9.0 mi WSW 6.9 mph - N/A   Scattered Clouds
10:15 AM 41.0 °F 35.8 °F 35.6 °F 81% 30.08 in 8.0 mi West 8.1 mph - N/A   Scattered Clouds
10:35 AM 44.6 °F 39.7 °F 35.6 °F 71% 30.08 in 9.0 mi WSW 9.2 mph - N/A   Mostly Cloudy
10:55 AM 42.8 °F 37.5 °F 35.6 °F 76% 30.08 in 9.0 mi WSW 9.2 mph - N/A   Overcast
11:15 AM 44.6 °F 39.7 °F 35.6 °F 71% 30.08 in 9.0 mi WSW 9.2 mph - N/A   Scattered Clouds
11:35 AM 46.4 °F 41.1 °F 35.6 °F 66% 30.08 in 10.0 mi WSW 11.5 mph - N/A   Scattered Clouds
11:55 AM 46.4 °F 41.9 °F 35.6 °F 66% 30.07 in 10.0 mi West 9.2 mph - N/A   Mostly Cloudy
12:15 PM 48.2 °F - 35.6 °F 62% 30.06 in 10.0 mi West 10.4 mph 16.1 mph N/A   Mostly Cloudy
12:35 PM 48.2 °F - 35.6 °F 62% 30.05 in 9.0 mi WSW 11.5 mph - N/A   Clear
12:55 PM 50.0 °F - 35.6 °F 58% 30.04 in 9.0 mi WSW 12.7 mph 18.4 mph N/A   Clear
1:15 PM 50.0 °F - 35.6 °F 58% 30.02 in 10.0 mi West 10.4 mph 18.4 mph N/A   Clear
1:35 PM 51.8 °F - 35.6 °F 54% 30.01 in 10.0 mi West 12.7 mph 18.4 mph N/A   Clear
1:55 PM 51.8 °F - 35.6 °F 54% 30.01 in 10.0 mi WNW 10.4 mph 17.3 mph N/A   Clear
2:15 PM 53.6 °F - 32.0 °F 44% 30.00 in 10.0 mi West 11.5 mph - N/A   Clear
2:35 PM 53.6 °F - 32.0 °F 44% 30.00 in 10.0 mi West 8.1 mph - N/A   Clear
2:55 PM 53.6 °F - 32.0 °F 44% 29.99 in 10.0 mi West 11.5 mph 16.1 mph N/A   Clear
3:15 PM 53.6 °F - 28.4 °F 38% 29.99 in 10.0 mi West 9.2 mph 17.3 mph N/A   Clear
3:55 PM 55.4 °F - 28.4 °F 36% 29.98 in 10.0 mi West 10.4 mph 16.1 mph N/A   Clear
4:15 PM 55.4 °F - 28.4 °F 36% 29.98 in 10.0 mi West 12.7 mph - N/A   Clear
4:35 PM 53.6 °F - 28.4 °F 38% 29.98 in 10.0 mi West 6.9 mph - N/A   Clear
4:55 PM 53.6 °F - 26.6 °F 35% 29.98 in 9.0 mi West 8.1 mph - N/A   Clear
5:15 PM 53.6 °F - 26.6 °F 35% 29.98 in 10.0 mi West 8.1 mph - N/A   Clear
5:35 PM 53.6 °F - 28.4 °F 38% 29.97 in 10.0 mi WNW 5.8 mph - N/A   Clear
5:55 PM 50.0 °F - 32.0 °F 50% 29.98 in 10.0 mi West 3.5 mph - N/A   Clear
6:15 PM 48.2 °F - 30.2 °F 50% 29.98 in 10.0 mi West 3.5 mph - N/A   Clear
6:35 PM 48.2 °F - 28.4 °F 46% 29.98 in 10.0 mi Calm Calm - N/A   Clear
6:55 PM 44.6 °F - 32.0 °F 61% 29.98 in 10.0 mi Calm Calm - N/A   Clear
7:15 PM 42.8 °F - 33.8 °F 70% 29.98 in 10.0 mi Calm Calm - N/A   Clear
7:35 PM 41.0 °F 38.0 °F 32.0 °F 70% 29.99 in 10.0 mi South 4.6 mph - N/A   Clear
7:55 PM 42.8 °F 40.1 °F 32.0 °F 66% 29.99 in 10.0 mi SSW 4.6 mph - N/A   Clear
8:15 PM 44.6 °F 42.2 °F 32.0 °F 61% 29.99 in 10.0 mi SSW 4.6 mph - N/A   Clear
8:35 PM 44.6 °F 42.2 °F 32.0 °F 61% 29.99 in 10.0 mi SSW 4.6 mph - N/A   Clear
8:55 PM 41.0 °F 39.0 °F 32.0 °F 70% 29.99 in 10.0 mi SSW 3.5 mph - N/A   Clear
9:15 PM 44.6 °F 42.2 °F 32.0 °F 61% 29.99 in 10.0 mi SSW 4.6 mph - N/A   Clear
9:35 PM 42.8 °F 40.1 °F 32.0 °F 66% 30.00 in 10.0 mi SSW 4.6 mph - N/A   Clear
9:55 PM 42.8 °F 41.1 °F 32.0 °F 66% 30.00 in 10.0 mi SSW 3.5 mph - N/A   Clear
10:15 PM 39.2 °F 37.0 °F 32.0 °F 75% 30.00 in 10.0 mi SW 3.5 mph - N/A   Clear
10:35 PM 39.2 °F 35.0 °F 32.0 °F 75% 30.01 in 10.0 mi SW 5.8 mph - N/A   Clear
10:55 PM 41.0 °F 36.4 °F 32.0 °F 70% 30.01 in 10.0 mi SSW 6.9 mph - N/A   Clear
11:15 PM 41.0 °F 37.1 °F 32.0 °F 70% 30.01 in 10.0 mi SSW 5.8 mph - N/A   Clear
11:35 PM 41.0 °F 37.1 °F 32.0 °F 70% 30.01 in 10.0 mi SSW 5.8 mph - N/A   Clear
11:55 PM 41.0 °F 38.0 °F 32.0 °F 70% 30.02 in 10.0 mi SSW 4.6 mph - N/A   Clear